Regional Weather Roundup
Issued by NWS

Home | Current Version | Previous Version | Graphics & Text | Print | Product List | Glossary On
Versions: 1 2 3 4 5 6 7 8 9 10 11 12 13 14 15 16 17 18 19 20 21 22 23 24 25 26 27 28 29 30 31 32 33 34 35 36 37 38 39 40 41 42 43 44 45 46 47 48 49 50
978
ASUS43 KBIS 230802
RWRND

NORTH DAKOTA REGIONAL WEATHER ROUNDUP
NATIONAL WEATHER SERVICE BISMARCK ND
200 AM CST THU NOV 23 2017

NOTE: "FAIR" INDICATES FEW OR NO CLOUDS BELOW 12,000 FEET WITH NO
SIGNIFICANT WEATHER AND/OR OBSTRUCTIONS TO VISIBILITY.


NDZ001>003-009>011-017-230900-
NORTHWEST NORTH DAKOTA

CITY           SKY/WX    TMP DP  RH WIND       PRES   REMARKS
WILLISTON      CLOUDY    23  21  92 CALM      29.87F
MINOT          CLOUDY    26  22  84 S7        29.88F WCI  18
MINOT AFB      CLOUDY    21  19  91 S3        29.87F
$$

NDZ018>021-031>035-040>046-230900-
SOUTHWEST NORTH DAKOTA

CITY           SKY/WX    TMP DP  RH WIND       PRES   REMARKS
BISMARCK       CLOUDY    24  21  88 SE3       29.96F
DICKINSON      CLEAR     38  35  89 SW9       29.88F
GARRISON         N/A     26  24  92 SW3       29.91F
HETTINGER ARPT CLEAR     31  29  92 CALM      29.96F
$$

NDZ004>008-012>016-024-026-027-054-230900-
NORTHEAST NORTH DAKOTA

CITY           SKY/WX    TMP DP  RH WIND       PRES   REMARKS
GRAND FORKS    CLOUDY    23  21  92 CALM      29.94S
GRND FRKS AFB  CLOUDY    24  21  89 CALM      29.93F
DEVILS LAKE    CLOUDY    28  25  88 W7        29.92F
$$

NDZ022-023-025-028>030-036>039-047>053-230900-
SOUTHEAST NORTH DAKOTA

CITY           SKY/WX    TMP DP  RH WIND       PRES   REMARKS
FARGO          CLOUDY    20  15  81 W7        29.95F WCI  11
JAMESTOWN      CLOUDY    28  24  85 W7        29.94F
$$





USA.gov is the U.S. government's official web portal to all federal, state and local government web resources and services.